Regional Weather Roundup
Issued by NWS

Home | Current Version | Previous Version | Graphics & Text | Print | Product List | Glossary On
Versions: 1 2 3 4 5 6 7 8 9 10 11 12 13 14 15 16 17 18 19 20 21 22 23 24 25 26 27 28 29 30 31 32 33 34 35 36 37 38 39 40 41 42 43 44 45 46 47 48 49 50
000
ASUS45 KSLC 170610
RWRUT

UTAH REGIONAL WEATHER ROUNDUP
NATIONAL WEATHER SERVICE SALT LAKE CITY UT
1100 PM MST TUE DEC 16 2014

UTZ001>011-023>025-170700-

NORTHERN UTAH

CITY           SKY/WX    TMP DP  RH WIND       PRES   REMARKS
BRIGHAM CITY   PTCLDY    33  28  85 NW6       30.01S WCI  27
HILL AFB       MOCLDY    35  31  85 S5        30.00S WCI  30
LOGAN          MOCLDY    31  28  89 CALM      30.00F
OGDEN          CLOUDY    35  30  82 S5        30.00S WCI  31
PROVO AIRPORT  MOCLDY    39  25  56 E5        30.01R
SALT LAKE CITY MOCLDY    34  30  85 CALM      30.01S
VERNAL         CLOUDY    24  23  96 W3        30.10S FOG
WENDOVER       CLEAR     25  23  93 CALM      30.02S
HEBER CITY     CLOUDY    32  25  74 CALM      30.00R
WEST JORDAN    CLOUDY    34  30  86 CALM      30.01S

$$

UTZ012>022-026-027-170700-

SOUTHERN/CENTRAL UTAH

CITY           SKY/WX    TMP DP  RH WIND       PRES   REMARKS
BLANDING       CLOUDY    33  28  83 NW5       30.12S WCI  28
BRYCE CANYON   CLOUDY    23  19  85 W3        30.04S
CEDAR CITY     CLOUDY    33  24  69 SE6       29.99S WCI  28
DELTA          MOCLDY    34  26  74 S8        30.01R WCI  27
MILFORD        CLOUDY    35  26  69 W8        29.99S WCI  29
MOAB/CYNLANDS  CLOUDY    35  30  82 CALM      30.06S
PRICE          MOCLDY    27  18  69 N8        30.05S WCI  19
ST GEORGE      PTCLDY    45  32  61 CALM      30.02R
KANAB            N/A     36  27  69 NW8       30.06S WCI  29

$$

REGIONAL REPORTS     COLORADO/ARIZONA

CITY           SKY/WX    TMP DP  RH WIND       PRES   REMARKS
CRAIG, CO      CLOUDY    20  17  88 CALM      30.06S
GRAND JUNCTION MOCLDY    30  29  96 CALM      30.06S
RIFLE          CLOUDY    28  24  85 CALM      30.08S
MONTROSE       MOCLDY    31  25  78 SE6       30.07F WCI  25
CORTEZ         CLOUDY    32  26  78 NE3       30.06S
PAGE, AZ       CLOUDY    42  26  53 CALM      30.03S
GRAND CANYON   CLOUDY    31  26  82 CALM      30.04S
KINGMAN        CLOUDY    45  34  65 S7        30.01S
FLAGSTAFF      CLOUDY    32  27  81 SW6       30.05R WCI  26

$$

REGIONAL REPORTS    NEVADA/IDAHO/WYOMING

CITY           SKY/WX    TMP DP  RH WIND       PRES   REMARKS
LAS VEGAS, NV  CLOUDY    50  37  61 S8        29.96S
ELY            PTCLDY    20  17  88 SE6       30.00S WCI  12
ELKO           CLEAR     27  25  92 NE6       29.98R WCI  20
POCATELLO, ID  CLOUDY    32  32 100 NE3       30.02S FOG
BURLEY         CLOUDY    32  30  92 CALM      29.99S
EVANSTON, WY   CLOUDY    28  20  71 S6        29.99S WCI  22
ROCK SPRINGS   MOCLDY    16  14  92 E3        30.01R

$$


USA.gov is the U.S. government's official web portal to all federal, state and local government web resources and services.